sat.trackr.live / text

‹ back to catalog

STARLINK-33676

NORAD 63403 · 2025-065E

PAYLOAD ACTIVE UNKNOWN

§ Identity

Operator
Country
US
Launch date
2025-03-31
Launch site
AFETR
Launch vehicle
Mass (kg)
RCS (m²)

Purposes: comms

External: N2YO · Heavens-Above · Gunter

§ Orbital elements

Epoch: 2026-09-20T05:27:18.080640Z

Period
94.27 min
Inclination
43.0030°
Eccentricity
0.0001346
Mean motion
15.27586039 rev/d
Perigee alt
482.1 km
Apogee alt
484.0 km
Semi-major
6,861.2 km
B*
3.7962e-4
RAAN
88.2906°
Arg perigee
273.3548°
Mean anomaly
86.7150°
Rev number
8,259

§ Raw data

STARLINK-336761 63403U 25065E   26263.22729260  .00010201  00000+0  37962-3 0  99962 63403  43.0030  88.2906 0001346 273.3548  86.7150 15.27586039 82594

JSON: /api/v1/satellites/63403 · /tle

For live sub-satellite position, see the globe view (requires WebGL).

§ Visibility from observer

Set your observer location to see the next 7 days of passes ≥ 10°. The values pass through the URL so the page stays shareable.

No JS? Fill the form by hand. The geolocation button needs JavaScript.